Location: Gro�sch�nbrunn
(49.5760°N, 11.8868°E)
Time: 16:30:23
(UTC+00:00)

Cosmos 372 Rocket - Visible Passes

Search period start: 30 November 2021 00:00
Search period end: 10 December 2021 00:00
Orbit: 738 x 768 km, 74.1° (Epoch: 29 November)

Date Brightness Start Highest point End Pass type
(mag) Time Alt. Az. Time Alt. Az. Time Alt. Az.
30 Nov 5.2 16:06:43 10° N 16:10:37 21° NE 16:14:31 10° E visible
30 Nov 4.0 17:47:45 10° NNW 17:53:00 80° WSW 17:56:21 23° SSE visible
30 Nov 6.9 19:31:48 10° WNW 19:33:50 12° W 19:35:51 10° WSW visible
01 Dec 3.9 17:06:11 10° NNW 17:11:23 62° ENE 17:16:34 10° SE visible
01 Dec 6.2 18:48:44 10° NW 18:52:40 22° W 18:56:36 10° SSW visible
02 Dec 7.4 06:08:19 10° E 06:09:13 10° E 06:10:07 10° E visible
02 Dec 4.5 16:24:45 10° N 16:29:37 37° ENE 16:34:29 10° SE visible
02 Dec 5.4 18:06:34 10° NW 18:11:22 38° WSW 18:16:10 10° S visible
03 Dec 4.4 17:24:44 10° NNW 17:29:56 66° WSW 17:35:07 10° S visible
04 Dec 3.9 16:43:06 10° NNW 16:48:21 74° ENE 16:53:36 10° SSE visible
04 Dec 6.6 18:26:01 10° NW 18:29:29 18° W 18:32:57 10° SW visible
05 Dec 7.1 05:43:38 10° ESE 05:45:59 13° E 05:48:20 10° ENE visible
05 Dec 4.3 16:01:38 10° NNW 16:06:39 44° ENE 16:11:39 10° SE visible
05 Dec 5.8 17:43:40 10° NW 17:48:14 31° W 17:52:48 10° SSW visible
06 Dec 4.8 17:01:44 10° NNW 17:06:51 54° WSW 17:11:56 10° S visible
07 Dec 6.3 05:59:39 10° SSE 06:03:59 28° E 06:08:23 10° NE visible
07 Dec 4.0 16:20:03 10° NNW 16:25:19 88° ENE 16:30:35 10° SSE visible
07 Dec 7.0 18:03:28 10° WNW 18:06:17 15° W 18:09:06 10° SW visible
08 Dec 7.0 05:19:39 10° SE 05:22:46 16° E 05:25:54 10° ENE visible
08 Dec 6.3 17:20:49 10° NW 17:25:05 26° W 17:29:20 10° SSW visible
09 Dec 4.7 06:17:13 10° S 06:22:15 61° ESE 06:27:22 10° NNE visible
09 Dec 5.3 16:38:46 10° NW 16:43:44 44° WSW 16:48:41 10° S visible
